• In Deutschland
  • Länderverzeichnis
  • Für 7 Tage
  • Wassertemperatur
  • Satellitenkarten
  • Wetterkarte
  • Widgets
  • user-avatar
    Anmelden

    Stündliche Wetter Graz

    Heute, 27 März, Montag

    Zeit Temperatur Niederschläge Wind Luftdruck Luftfeuchtigkeit
    00:00 +2°C° 0 mm 1 m/S 729 mmHg 85%
    01:00 +1°C° 0 mm 1 m/S 730 mmHg 86%
    02:00 +1°C° 0 mm 1 m/S 730 mmHg 87%
    03:00 +1°C° 0 mm 1 m/S 730 mmHg 88%
    04:00 -1°C° 0 mm 0 m/S 730 mmHg 89%
    05:00 +1°C° 0 mm 0 m/S 730 mmHg 83%
    06:00 +2°C° 0 mm 0 m/S 730 mmHg 77%
    07:00 +3°C° 0 mm 0 m/S 730 mmHg 71%
    08:00 +6°C° 0 mm 0 m/S 731 mmHg 61%
    09:00 +8°C° 0 mm 0 m/S 731 mmHg 51%
    10:00 +11°C° 0 mm 1 m/S 731 mmHg 41%
    11:00 +12°C° 0 mm 1 m/S 730 mmHg 39%
    12:00 +13°C° 0 mm 1 m/S 730 mmHg 36%
    13:00 +14°C° 0 mm 1 m/S 730 mmHg 34%
    14:00 +14°C° 0 mm 1 m/S 730 mmHg 36%
    15:00 +13°C° 0 mm 1 m/S 729 mmHg 38%
    16:00 +13°C° 0 mm 1 m/S 729 mmHg 40%
    17:00 +10°C° 0 mm 1 m/S 729 mmHg 53%
    18:00 +7°C° 0 mm 1 m/S 729 mmHg 65%
    19:00 +4°C° 0 mm 1 m/S 729 mmHg 78%
    20:00 +3°C° 0 mm 0 m/S 729 mmHg 79%
    21:00 +3°C° 0 mm 0 m/S 729 mmHg 80%
    22:00 +2°C° 0 mm 0 m/S 729 mmHg 81%
    23:00 +2°C° 0 mm 0 m/S 729 mmHg 80%

    Morgen, 28 März, Dienstag

    Zeit Temperatur Niederschläge Wind Luftdruck Luftfeuchtigkeit
    00:00 +2°C° 0 mm 0 m/S 729 mmHg 79%
    01:00 +2°C° 0 mm 0 m/S 729 mmHg 78%
    02:00 +2°C° 0 mm 0 m/S 729 mmHg 78%
    03:00 +2°C° 0 mm 0 m/S 729 mmHg 78%
    04:00 +3°C° 0 mm 1 m/S 729 mmHg 78%
    05:00 +4°C° 0 mm 1 m/S 729 mmHg 73%
    06:00 +6°C° 0 mm 1 m/S 729 mmHg 69%
    07:00 +7°C° 0 mm 1 m/S 729 mmHg 64%
    08:00 +10°C° 0 mm 1 m/S 729 mmHg 55%
    09:00 +13°C° 0 mm 1 m/S 730 mmHg 47%
    10:00 +16°C° 0 mm 1 m/S 730 mmHg 39%
    11:00 +18°C° 0 mm 1 m/S 730 mmHg 38%
    12:00 +18°C° 0 mm 1 m/S 730 mmHg 38%
    13:00 +19°C° 0 mm 1 m/S 730 mmHg 38%
    14:00 +19°C° 0 mm 1 m/S 729 mmHg 41%
    15:00 +19°C° 0 mm 1 m/S 729 mmHg 44%
    16:00 +18°C° 0 mm 1 m/S 729 mmHg 47%
    17:00 +14°C° 0 mm 1 m/S 729 mmHg 60%
    18:00 +11°C° 0 mm 1 m/S 729 mmHg 73%
    19:00 +7°C° 0 mm 1 m/S 728 mmHg 86%
    20:00 +7°C° 0 mm 1 m/S 729 mmHg 87%
    21:00 +7°C° 0 mm 1 m/S 729 mmHg 87%
    22:00 +7°C° 0 mm 1 m/S 730 mmHg 88%
    23:00 +7°C° 0 mm 1 m/S 730 mmHg 88%

    übermorgen, 29 März, Mittwoch

    Zeit Temperatur Niederschläge Wind Luftdruck Luftfeuchtigkeit
    00:00 +7°C° 0 mm 1 m/S 730 mmHg 88%
    01:00 +7°C° 0 mm 1 m/S 730 mmHg 89%
    02:00 +7°C° 0 mm 1 m/S 730 mmHg 90%
    03:00 +7°C° 0 mm 1 m/S 730 mmHg 91%
    04:00 +7°C° 0 mm 1 m/S 730 mmHg 92%
    05:00 +8°C° 0 mm 1 m/S 730 mmHg 90%
    06:00 +8°C° 0 mm 1 m/S 731 mmHg 89%
    07:00 +9°C° 0 mm 1 m/S 731 mmHg 87%
    08:00 +12°C° 0 mm 1 m/S 731 mmHg 77%
    09:00 +14°C° 0 mm 1 m/S 731 mmHg 67%
    10:00 +18°C° 0 mm 1 m/S 731 mmHg 57%
    11:00 +19°C° 0 mm 1 m/S 731 mmHg 54%
    12:00 +20°C° 0 mm 1 m/S 731 mmHg 50%
    13:00 +19°C° 0 mm 0 m/S 731 mmHg 47%
    14:00 +20°C° 0 mm 1 m/S 730 mmHg 49%
    15:00 +20°C° 0 mm 1 m/S 730 mmHg 51%
    16:00 +19°C° 0 mm 1 m/S 730 mmHg 53%
    17:00 +16°C° 0 mm 1 m/S 730 mmHg 63%
    18:00 +14°C° 0 mm 1 m/S 730 mmHg 73%
    19:00 +11°C° 0 mm 1 m/S 730 mmHg 82%
    20:00 +11°C° 0 mm 1 m/S 730 mmHg 84%
    21:00 +11°C° 0 mm 1 m/S 730 mmHg 85%
    22:00 +10°C° 0 mm 1 m/S 731 mmHg 87%
    23:00 +10°C° 0 mm 1 m/S 731 mmHg 88%

    30 März, Donnerstag

    Zeit Temperatur Niederschläge Wind Luftdruck Luftfeuchtigkeit
    00:00 +10°C° 0 mm 1 m/S 731 mmHg 89%
    01:00 +9°C° 0 mm 1 m/S 731 mmHg 90%
    02:00 +9°C° 0 mm 1 m/S 731 mmHg 91%
    03:00 +9°C° 0 mm 1 m/S 731 mmHg 92%
    04:00 +8°C° 0 mm 1 m/S 731 mmHg 93%
    05:00 +9°C° 0 mm 1 m/S 731 mmHg 91%
    06:00 +9°C° 0 mm 1 m/S 731 mmHg 89%
    07:00 +10°C° 0 mm 1 m/S 732 mmHg 88%
    08:00 +12°C° 0 mm 1 m/S 732 mmHg 78%
    09:00 +15°C° 0 mm 1 m/S 732 mmHg 68%
    10:00 +16°C° 0 mm 0 m/S 732 mmHg 59%
    11:00 +19°C° 0 mm 1 m/S 732 mmHg 55%
    12:00 +20°C° 0 mm 1 m/S 732 mmHg 52%
    13:00 +21°C° 0 mm 1 m/S 731 mmHg 49%
    14:00 +20°C° 0 mm 1 m/S 731 mmHg 51%
    15:00 +20°C° 0 mm 1 m/S 731 mmHg 54%
    16:00 +19°C° 0 mm 1 m/S 731 mmHg 56%
    17:00 +16°C° 0 mm 1 m/S 730 mmHg 66%
    18:00 +14°C° 0 mm 1 m/S 730 mmHg 77%
    19:00 +12°C° 0 mm 1 m/S 730 mmHg 87%
    20:00 +11°C° 0 mm 1 m/S 730 mmHg 89%
    21:00 +11°C° 0 mm 1 m/S 730 mmHg 91%
    22:00 +10°C° 0 mm 1 m/S 731 mmHg 93%
    23:00 +9°C° 0 mm 1 m/S 730 mmHg 93%

    31 März, Freitag

    Zeit Temperatur Niederschläge Wind Luftdruck Luftfeuchtigkeit
    00:00 +9°C° 0 mm 1 m/S 730 mmHg 94%
    01:00 +8°C° 0 mm 1 m/S 730 mmHg 95%
    02:00 +8°C° 0 mm 1 m/S 730 mmHg 95%
    03:00 +8°C° 0 mm 1 m/S 729 mmHg 95%
    04:00 +7°C° 0 mm 1 m/S 729 mmHg 96%
    05:00 +9°C° 0 mm 1 m/S 729 mmHg 94%
    06:00 +10°C° 0 mm 1 m/S 729 mmHg 93%
    07:00 +11°C° 0 mm 1 m/S 729 mmHg 92%
    08:00 +13°C° 0 mm 1 m/S 729 mmHg 83%
    09:00 +15°C° 0 mm 2 m/S 729 mmHg 74%
    10:00 +17°C° 0 mm 2 m/S 729 mmHg 65%
    11:00 +18°C° 0 mm 2 m/S 728 mmHg 61%
    12:00 +18°C° 0 mm 3 m/S 728 mmHg 58%
    13:00 +19°C° 0 mm 3 m/S 727 mmHg 54%
    14:00 +19°C° 0 mm 3 m/S 727 mmHg 55%
    15:00 +19°C° 0 mm 3 m/S 726 mmHg 56%
    16:00 +19°C° 0 mm 3 m/S 725 mmHg 57%
    17:00 +17°C° 0 mm 3 m/S 725 mmHg 68%
    18:00 +14°C° 0 mm 2 m/S 725 mmHg 78%
    19:00 +12°C° 0 mm 2 m/S 724 mmHg 89%
    20:00 +12°C° 0 mm 2 m/S 724 mmHg 91%
    21:00 +10°C° 0 mm 2 m/S 724 mmHg 92%
    22:00 +10°C° 0 mm 1 m/S 724 mmHg 94%
    23:00 +10°C° 0 mm 1 m/S 723 mmHg 94%

    1 April, Samstag

    Zeit Temperatur Niederschläge Wind Luftdruck Luftfeuchtigkeit
    00:00 +9°C° 0 mm 1 m/S 723 mmHg 94%
    01:00 +9°C° 0 mm 1 m/S 723 mmHg 94%
    02:00 +8°C° 0 mm 1 m/S 723 mmHg 94%
    03:00 +8°C° 0 mm 1 m/S 722 mmHg 94%
    04:00 +7°C° 0 mm 1 m/S 722 mmHg 94%
    05:00 +8°C° 0 mm 1 m/S 722 mmHg 91%
    06:00 +9°C° 0 mm 1 m/S 722 mmHg 88%
    07:00 +10°C° 0 mm 1 m/S 722 mmHg 84%
    08:00 +12°C° 0 mm 1 m/S 722 mmHg 75%
    09:00 +14°C° 0 mm 2 m/S 722 mmHg 66%
    10:00 +16°C° 0 mm 2 m/S 722 mmHg 56%
    11:00 +17°C° 0 mm 3 m/S 722 mmHg 53%
    12:00 +18°C° 0 mm 3 m/S 721 mmHg 49%
    13:00 +19°C° 0 mm 4 m/S 721 mmHg 46%
    14:00 +19°C° 0 mm 4 m/S 721 mmHg 47%
    15:00 +19°C° 0 mm 4 m/S 720 mmHg 48%
    16:00 +18°C° 0 mm 4 m/S 720 mmHg 48%
    17:00 +16°C° 0 mm 3 m/S 720 mmHg 58%
    18:00 +13°C° 0 mm 3 m/S 720 mmHg 68%
    19:00 +12°C° 0 mm 2 m/S 719 mmHg 78%
    20:00 +10°C° 0 mm 2 m/S 720 mmHg 81%
    21:00 +9°C° 0 mm 2 m/S 720 mmHg 84%
    22:00 +8°C° 0 mm 2 m/S 720 mmHg 88%
    23:00 +9°C° 0 mm 1 m/S 720 mmHg 89%
    Mehr zeigen